sat.trackr.live / text

‹ back to catalog

STARLINK-30084

NORAD 56825 · 2023-079C

PAYLOAD ACTIVE UNKNOWN

§ Identity

Operator
Country
US
Launch date
2023-06-04
Launch site
AFETR
Launch vehicle
Mass (kg)
RCS (m²)

Purposes: comms

External: N2YO · Heavens-Above · Gunter

§ Orbital elements

Epoch: 2026-09-18T21:54:52.949376Z

Period
94.27 min
Inclination
43.0030°
Eccentricity
0.0001358
Mean motion
15.27580101 rev/d
Perigee alt
482.1 km
Apogee alt
484.0 km
Semi-major
6,861.2 km
B*
3.3117e-5
RAAN
95.4627°
Arg perigee
281.0436°
Mean anomaly
79.0263°
Rev number
18,244

§ Raw data

STARLINK-300841 56825U 23079C   26261.91311284  .00000649  00000+0  33117-4 0  99902 56825  43.0030  95.4627 0001358 281.0436  79.0263 15.27580101182448

JSON: /api/v1/satellites/56825 · /tle

For live sub-satellite position, see the globe view (requires WebGL).

§ Visibility from observer

Set your observer location to see the next 7 days of passes ≥ 10°. The values pass through the URL so the page stays shareable.

No JS? Fill the form by hand. The geolocation button needs JavaScript.